QPF
0.01 0.10 0.08 0.03 0.01 0.03 0.02 0.01 0.02 0.02 0.01 0.02 0.01 0.00 0.01 0.01 0.02 0.01 0.00 0.00 0.01 0.00
0.01 0.01 0.00 0.01 0.00 0.00 0.00 0.00 0.00 0.01 0.01 0.00 0.00 0.00 0.00 0.02 0.01 0.02 0.00 0.00 0.00 0.00
0.04 0.01 0.00 0.00 0.01 0.03 0.00 0.00 0.00 0.00 0.01 0.00 0.00 0.00 0.00 0.00 0.00 0.00 0.00 0.00 0.01 0.00
0.02 0.00 0.01 0.00 0.00 0.01 0.02 0.02 0.00 0.00 0.00 0.01 0.00 0.00 0.00 0.00 0.00 0.00 0.00 0.00 0.00 0.00
0.00 0.00 0.00 0.00 0.00 0.00 0.04 0.10 0.04 0.02 0.03 0.02 0.01 0.00 0.00 0.00 0.00 0.00 0.00 0.00 0.00 0.00
0.00 0.00 0.00 0.00 0.01 0.01 0.03 0.03 0.02 0.06 0.07 0.07 0.05 0.03 0.00 0.00 0.00 0.00 0.00 0.00 0.02 0.01
0.00 0.00 0.00 0.00 0.00 0.00 0.00 0.01 0.01 0.03 0.09 0.10 0.11 0.09 0.07 0.07 0.04 0.03 0.01 0.00 0.00 0.00
0.00 0.00 0.00 0.00 0.00 0.00 0.00 0.00 0.00 0.00 0.01 0.03 0.06 0.08 0.12 0.10 0.13 0.13 0.11 0.09 0.07 0.01
0.00 0.00 0.00 0.00 0.00 0.00 0.00 0.00 0.00 0.00 0.00 0.00 0.00 0.01 0.01 0.03 0.07 0.08 0.11 0.10 0.08 0.08
0.00 0.00 0.00 0.00 0.00 0.00 0.00 0.00 0.00 0.00 0.00 0.00 0.00 0.00 0.00 0.00 0.00 0.01 0.03 0.06 0.07 0.04
0.00 0.00 0.00 0.00 0.00 0.00 0.00 0.00 0.00 0.00 0.00 0.00 0.00 0.00 0.00 0.00 0.00 0.00 0.00 0.00 0.02 0.04
0.00 0.00 0.00 0.00 0.00 0.00 0.00 0.00 0.00 0.00 0.00 0.00 0.00 0.00 0.00 0.00 0.00 0.00 0.00 0.00 0.00 0.00
0.00 0.00 0.00 0.00 0.00 0.00 0.00 0.00 0.00 0.00 0.00 0.00 0.00 0.00 0.00 0.00 0.00 0.00 0.00 0.00 0.00 0.00
0.00 0.00 0.00 0.00 0.00 0.00 0.00 0.00 0.00 0.00 0.00 0.00 0.00 0.00 0.00 0.00 0.00 0.00 0.00 0.00 0.00 0.00
MSLP
1012.66 1012.92 1012.84 1012.78 1012.50 1012.88 1013.29 1013.59 1013.84 1013.99 1014.15 1014.39 1014.45 1014.59 1014.93 1015.24 1015.37 1015.02 1015.06 1015.39 1015.31 1014.80
1012.39 1012.62 1012.58 1012.28 1012.44 1012.27 1012.79 1012.93 1013.28 1013.66 1013.99 1014.04 1014.24 1014.50 1014.59 1014.75 1015.06 1014.93 1014.90 1014.63 1014.77 1014.79
1012.16 1012.46 1012.83 1012.97 1012.61 1012.73 1012.60 1012.86 1013.03 1013.48 1013.70 1013.70 1013.77 1014.07 1014.38 1014.16 1014.33 1014.65 1014.28 1014.13 1014.12 1014.50
1012.36 1012.36 1012.90 1012.86 1012.93 1012.83 1012.85 1012.87 1013.00 1013.30 1013.42 1013.52 1013.69 1013.63 1013.78 1013.96 1013.85 1013.88 1014.03 1014.11 1014.00 1014.12
1012.22 1012.67 1012.59 1012.62 1012.68 1012.78 1012.46 1012.83 1012.89 1013.01 1013.20 1013.30 1013.30 1013.21 1013.57 1013.52 1013.34 1013.47 1013.51 1013.51 1013.64 1013.64
1012.00 1011.98 1012.26 1012.49 1012.42 1012.66 1012.64 1012.58 1012.32 1012.56 1012.71 1012.86 1012.84 1012.87 1012.77 1012.91 1013.06 1013.01 1012.89 1012.91 1013.12 1013.06
1012.26 1012.25 1012.44 1012.70 1012.65 1012.54 1012.48 1012.45 1012.30 1012.49 1012.57 1012.60 1012.59 1012.61 1012.54 1012.60 1012.60 1012.53 1012.39 1012.40 1012.36 1012.42
1012.65 1012.69 1012.70 1012.72 1012.78 1012.71 1012.62 1012.41 1012.37 1012.15 1011.91 1012.02 1012.24 1012.23 1012.27 1012.38 1012.35 1012.47 1012.35 1012.19 1012.19 1012.01
1012.90 1013.02 1012.96 1012.92 1012.86 1012.81 1012.67 1012.52 1012.34 1012.14 1011.96 1011.82 1011.57 1011.71 1012.01 1012.11 1012.04 1011.99 1011.93 1011.86 1011.65 1011.50
1013.19 1013.21 1013.28 1013.27 1013.17 1013.04 1012.85 1012.65 1012.43 1012.14 1011.94 1011.77 1011.69 1011.62 1011.78 1011.92 1011.72 1011.38 1011.00 1011.05 1011.07 1010.97
1013.36 1013.37 1013.37 1013.29 1013.16 1012.99 1012.77 1012.57 1012.38 1012.13 1011.93 1011.78 1011.62 1011.58 1011.64 1011.68 1011.53 1011.15 1010.79 1010.48 1010.20 1010.11
1013.49 1013.57 1013.49 1013.28 1013.05 1012.88 1012.70 1012.37 1012.04 1011.79 1011.59 1011.39 1011.22 1011.22 1011.23 1011.37 1011.01 1010.54 1010.19 1009.88 1009.67 1009.48
1014.15 1014.19 1013.86 1013.68 1013.43 1013.22 1012.97 1012.36 1011.92 1011.55 1011.39 1011.16 1010.97 1010.84 1010.82 1010.90 1010.62 1010.02 1009.55 1009.13 1008.80 1008.68
1014.43 1014.40 1014.32 1013.73 1013.54 1013.53 1013.22 1012.86 1012.42 1012.06 1011.90 1011.59 1011.30 1010.87 1010.50 1010.38 1010.27 1009.82 1009.24 1008.58 1008.04 1007.55
Thickness
5790 5786 5788 5788 5790 5788 5784 5783 5783 5782 5781 5780 5779 5778 5776 5775 5775 5779 5777 5773 5774 5777
5793 5790 5789 5793 5794 5795 5792 5792 5788 5784 5781 5782 5781 5780 5780 5779 5775 5777 5777 5778 5777 5776
5794 5793 5789 5788 5790 5790 5793 5791 5789 5785 5783 5784 5785 5782 5779 5781 5781 5777 5780 5781 5779 5775
5792 5793 5789 5789 5789 5789 5790 5790 5788 5785 5785 5785 5784 5786 5784 5782 5782 5780 5778 5778 5777 5775
5794 5790 5789 5789 5790 5790 5791 5789 5788 5787 5785 5784 5785 5786 5783 5782 5784 5780 5778 5779 5777 5775
5791 5792 5789 5788 5790 5789 5789 5789 5793 5789 5787 5785 5786 5785 5787 5784 5782 5781 5781 5780 5777 5777
5785 5786 5786 5784 5785 5786 5788 5787 5789 5787 5786 5785 5785 5785 5784 5782 5781 5781 5782 5781 5780 5779
5780 5780 5780 5780 5780 5781 5781 5783 5784 5785 5787 5786 5784 5782 5781 5780 5778 5775 5775 5777 5776 5778
5775 5773 5773 5773 5774 5775 5775 5776 5777 5778 5779 5780 5783 5780 5776 5775 5775 5774 5772 5769 5773 5775
5766 5765 5764 5764 5764 5764 5766 5768 5769 5771 5772 5773 5774 5773 5771 5768 5770 5771 5774 5771 5770 5770
5759 5758 5757 5757 5757 5757 5759 5759 5760 5762 5764 5765 5767 5766 5764 5761 5763 5765 5767 5768 5769 5769
5750 5749 5749 5749 5751 5751 5751 5753 5755 5756 5757 5758 5760 5759 5757 5754 5756 5758 5761 5764 5765 5765
5736 5734 5737 5737 5738 5740 5741 5744 5747 5748 5750 5752 5753 5753 5751 5748 5749 5750 5752 5757 5760 5760
5723 5722 5722 5727 5727 5726 5727 5729 5732 5734 5734 5736 5738 5741 5742 5740 5739 5739 5742 5747 5750 5755